CW4577 Weather Reports


time (UTC)temp
C
wind
direction
speed
KPH
gust
KPH
rain 1hr
cm
rain 24hr
cm
rain mn
cm
humidity
%
barometer
mb
20260505102004 10 13 1.6 4.8 0.00 0.00 0.00 93 1014.0
20260505101504 10 344 4.8 9.7 0.00 0.00 0.00 93 1014.0
20260505101004 10 332 3.2 4.8 0.00 0.00 0.00 93 1014.1
20260505095504 10 345 3.2 4.8 0.00 0.00 0.00 93 1014.1
20260505095003 10 20 1.6 4.8 0.00 0.00 0.00 93 1014.1
20260505094504 10 43 1.6 3.2 0.00 0.00 0.00 93 1014.1
20260505094004 10 343 1.6 3.2 0.00 0.00 0.00 93 1014.0
20260505093504 10 15 1.6 3.2 0.00 0.00 0.00 93 1013.9
20260505093004 10 352 3.2 4.8 0.00 0.00 0.00 93 1013.9
20260505092004 10 43 3.2 4.8 0.00 0.00 0.00 93 1013.8
20260505091003 10 353 4.8 8.0 0.00 0.00 0.00 93 1013.7
20260505090504 10 23 3.2 4.8 0.00 0.00 0.00 93 1013.6
20260505090004 10 0 3.2 4.8 0.00 0.00 0.00 93 1013.6
20260505085004 10 352 4.8 8.0 0.00 0.00 0.00 93 1013.6
20260505084504 10 12 4.8 9.7 0.00 0.00 0.00 93 1013.6
20260505084004 10 1 3.2 9.7 0.00 0.00 0.00 93 1013.6
20260505083504 10 337 4.8 4.8 0.00 0.00 0.00 93 1013.5
20260505083004 10 21 1.6 4.8 0.00 0.00 0.00 93 1013.5
20260505082504 10 30 3.2 4.8 0.00 0.00 0.00 93 1013.5
20260505082004 10 18 4.8 12.9 0.00 0.00 0.00 93 1013.4
20260505081503 10 11 6.4 12.9 0.00 0.00 0.00 93 1013.3
20260505081004 11 0 4.8 9.7 0.00 0.00 0.00 93 1013.4
20260505080503 11 6 3.2 4.8 0.00 0.00 0.00 93 1013.2
20260505080003 11 353 3.2 8.0 0.00 0.00 0.00 93 1013.2
20260505075004 11 353 4.8 12.9 0.00 0.00 0.00 93 1013.1
20260505074504 11 2 4.8 8.0 0.00 0.00 0.00 93 1013.1
20260505074004 11 3 4.8 8.0 0.00 0.00 0.00 93 1013.1
20260505073503 11 12 3.2 4.8 0.00 0.00 0.00 93 1013.1
20260505073003 11 0 4.8 14.5 0.00 0.00 0.00 93 1013.0
20260505071505 11 25 6.4 19.3 0.00 0.00 0.00 93 1012.9
20260505071004 11 22 4.8 8.0 0.00 0.00 0.00 93 1012.8
20260505070505 11 7 4.8 12.9 0.00 0.00 0.00 93 1012.8
20260505070004 11 18 4.8 9.7 0.00 0.00 0.00 93 1012.8
20260505065504 11 12 4.8 9.7 0.00 0.00 0.00 92 1012.8
20260505065004 11 341 8.0 14.5 0.00 0.00 0.00 92 1012.8
20260505064504 11 7 4.8 9.7 0.00 0.00 0.00 92 1012.7
20260505064003 11 4 4.8 11.3 0.00 0.00 0.00 92 1012.7
20260505063504 11 1 4.8 9.7 0.00 0.00 0.00 92 1012.6
20260505063004 11 21 4.8 8.0 0.00 0.00 0.00 92 1012.5
20260505062503 11 348 4.8 8.0 0.00 0.00 0.00 92 1012.4
20260505062003 11 356 4.8 14.5 0.00 0.00 0.00 92 1012.4
20260505061504 11 359 4.8 12.9 0.00 0.00 0.00 92 1012.3
20260505061004 11 4 4.8 9.7 0.00 0.00 0.00 92 1012.3
20260505060504 11 343 4.8 9.7 0.00 0.00 0.00 92 1012.3
20260505060004 11 359 4.8 9.7 0.00 0.00 0.00 92 1012.2
20260505055504 11 2 8.0 14.5 0.00 0.00 0.00 92 1012.2
20260505055004 11 13 4.8 4.8 0.00 0.00 0.00 92 1012.3
20260505054504 11 0 3.2 8.0 0.00 0.00 0.00 92 1012.2
20260505053503 11 351 6.4 9.7 0.00 0.00 0.00 92 1012.1
20260505053004 11 3 4.8 9.7 0.00 0.00 0.00 92 1012.1
20260505052504 11 356 4.8 8.0 0.00 0.00 0.00 91 1012.0
20260505052003 11 26 4.8 11.3 0.00 0.00 0.00 91 1011.9
20260505051504 11 11 4.8 11.3 0.00 0.00 0.00 91 1011.9
20260505051004 11 19 4.8 11.3 0.00 0.00 0.00 91 1011.9
20260505050503 11 13 4.8 11.3 0.00 0.00 0.00 90 1011.9
20260505041504 12 36 4.8 11.3 0.00 0.00 0.00 88 1011.8
20260505041004 12 30 4.8 9.7 0.00 0.00 0.00 88 1011.7
20260505040504 12 33 4.8 9.7 0.00 0.00 0.00 87 1011.6
20260505040004 13 14 4.8 9.7 0.00 0.00 0.00 87 1011.6
20260505035503 13 13 4.8 9.7 0.00 0.00 0.00 86 1011.6
20260505035004 13 20 8.0 14.5 0.00 0.00 0.00 86 1011.6
20260505034504 13 13 4.8 8.0 0.00 0.00 0.00 85 1011.5
20260505033504 13 20 4.8 9.7 0.00 0.00 0.00 84 1011.3
20260505033004 13 23 4.8 9.7 0.00 0.00 0.00 83 1011.2
20260505032504 14 18 4.8 8.0 0.00 0.00 0.00 82 1011.2
20260505031503 15 6 4.8 8.0 0.00 0.00 0.00 81 1011.1
20260505031004 15 12 4.8 11.3 0.00 0.00 0.00 80 1011.1
20260505030503 15 357 6.4 12.9 0.00 0.00 0.00 79 1011.1
20260505030004 15 358 4.8 12.9 0.00 0.00 0.00 78 1011.0
20260505025504 16 20 4.8 8.0 0.00 0.00 0.00 77 1011.0
20260505024504 16 10 3.2 4.8 0.00 0.00 0.00 76 1010.9
20260505023004 16 341 3.2 8.0 0.00 0.00 0.00 73 1010.8
20260505022004 17 34 3.2 4.8 0.00 0.00 0.00 71 1010.8
20260505021504 17 28 3.2 9.7 0.00 0.00 0.00 71 1010.7
20260505020504 17 33 4.8 14.5 0.00 0.00 0.00 70 1010.6
20260505020004 18 26 4.8 8.0 0.00 0.00 0.00 69 1010.5
20260505015503 18 14 4.8 11.3 0.00 0.00 0.00 68 1010.5
20260505014003 19 35 4.8 14.5 0.00 0.00 0.00 67 1010.6
20260505013503 19 23 3.2 8.0 0.00 0.00 0.00 66 1010.6
20260505012504 20 16 6.4 12.9 0.00 0.00 0.00 64 1010.4
20260505012004 20 24 4.8 8.0 0.00 0.00 0.00 62 1010.5
20260505011503 21 23 3.2 4.8 0.00 0.00 0.00 61 1010.5
20260505011004 21 13 3.2 9.7 0.00 0.00 0.00 61 1010.6
20260505010503 21 32 3.2 8.0 0.00 0.00 0.00 60 1010.6
20260505005504 21 15 3.2 12.9 0.00 0.00 0.00 59 1010.5
20260505005004 22 10 3.2 8.0 0.00 0.00 0.00 57 1010.5
20260505004504 22 54 3.2 9.7 0.00 0.00 0.00 58 1010.5
20260505004003 22 358 3.2 14.5 0.00 0.00 0.00 59 1010.5
20260505003004 22 11 3.2 16.1 0.00 0.00 0.00 56 1010.5
20260505002504 22 342 4.8 16.1 0.00 0.00 0.00 57 1010.6
20260505001003 22 343 4.8 12.9 0.00 0.00 0.00 59 1010.6
20260505000004 22 323 4.8 9.7 0.00 0.00 0.00 63 1010.6
20260504235504 22 26 3.2 4.8 0.00 0.00 0.00 64 1010.5
20260504235004 21 8 1.6 4.8 0.00 0.00 0.00 66 1010.6
20260504234504 21 188 3.2 4.8 0.00 0.00 0.00 67 1010.6
20260504234004 21 216 1.6 4.8 0.00 0.00 0.00 66 1010.6
20260504233504 21 332 1.6 4.8 0.00 0.00 0.00 67 1010.5
20260504232504 21 190 3.2 8.0 0.00 0.00 0.00 66 1010.6
20260504232004 21 34 3.2 4.8 0.00 0.00 0.00 67 1010.6
20260504231503 21 225 4.8 4.8 0.00 0.00 0.00 65 1010.6
20260504231004 21 39 3.2 4.8 0.00 0.00 0.00 65 1010.6
20260504230503 21 147 3.2 8.0 0.00 0.00 0.00 66 1010.6
20260504230004 21 170 4.8 8.0 0.00 0.00 0.00 66 1010.7
20260504225504 21 195 3.2 4.8 0.00 0.00 0.00 68 1010.8
20260504224503 21 217 3.2 4.8 0.00 0.00 0.00 67 1010.9
20260504224004 21 220 4.8 4.8 0.00 0.00 0.00 67 1011.0
20260504222504 22 24 3.2 4.8 0.00 0.00 0.00 64 1011.1
20260504222003 22 225 4.8 4.8 0.00 0.00 0.00 65 1011.2
20260504221004 22 178 4.8 8.0 0.00 0.00 0.00 65 1011.3
20260504220504 22 105 1.6 8.0 0.00 0.00 0.00 63 1011.4
20260504220004 22 226 4.8 8.0 0.00 0.00 0.00 66 1011.4
20260504215503 22 226 1.6 8.0 0.00 0.00 0.00 65 1011.4
20260504215003 22 317 3.2 8.0 0.00 0.00 0.00 64 1011.4
20260504214504 22 184 3.2 8.0 0.00 0.00 0.00 68 1011.5
20260504213504 22 329 3.2 8.0 0.00 0.00 0.00 62 1011.6
20260504213004 22 259 1.6 8.0 0.00 0.00 0.00 66 1011.6
20260504212503 22 209 4.8 9.7 0.00 0.00 0.00 63 1011.6
20260504212004 22 205 4.8 9.7 0.00 0.00 0.00 65 1011.6
20260504211504 22 210 8.0 11.3 0.00 0.00 0.00 64 1011.7
20260504211004 22 211 3.2 9.7 0.00 0.00 0.00 64 1011.7
20260504210504 22 179 3.2 4.8 0.00 0.00 0.00 67 1011.8
20260504205503 21 202 3.2 4.8 0.00 0.00 0.00 63 1011.9
20260504205004 21 204 6.4 9.7 0.00 0.00 0.00 65 1012.0
20260504204504 21 81 1.6 8.0 0.00 0.00 0.00 65 1012.1
20260504204004 21 227 3.2 4.8 0.00 0.00 0.00 68 1012.1
20260504203504 21 210 3.2 4.8 0.00 0.00 0.00 69 1012.1
20260504202504 21 189 4.8 8.0 0.00 0.00 0.00 66 1012.3
20260504202004 21 211 4.8 12.9 0.00 0.00 0.00 66 1012.3
20260504201504 21 319 1.6 4.8 0.00 0.00 0.00 67 1012.3
20260504200503 21 235 3.2 9.7 0.00 0.00 0.00 68 1012.4
20260504195504 20 172 4.8 8.0 0.00 0.00 0.00 68 1012.5
20260504193504 20 237 4.8 9.7 0.00 0.00 0.00 69 1012.5
20260504193003 20 275 3.2 11.3 0.00 0.00 0.00 70 1012.6
20260504192003 20 236 3.2 8.0 0.00 0.00 0.00 73 1012.6
20260504191504 19 205 4.8 8.0 0.00 0.00 0.00 68 1012.6
20260504191004 19 203 3.2 12.9 0.00 0.00 0.00 72 1012.7
20260504190504 19 204 3.2 8.0 0.00 0.00 0.00 72 1012.8
20260504190004 19 200 3.2 4.8 0.00 0.00 0.00 72 1012.9
20260504185504 19 213 4.8 11.3 0.00 0.00 0.00 74 1012.8
20260504185004 18 206 3.2 12.9 0.00 0.00 0.00 73 1012.8
20260504184503 18 168 6.4 11.3 0.00 0.00 0.00 69 1012.8
20260504184003 18 136 4.8 8.0 0.00 0.00 0.00 73 1012.9
20260504183504 18 222 4.8 11.3 0.00 0.00 0.00 73 1012.8
20260504183004 18 215 3.2 8.0 0.00 0.00 0.00 73 1012.8
20260504182504 18 233 3.2 8.0 0.00 0.00 0.00 73 1012.7
20260504182003 18 234 3.2 4.8 0.00 0.00 0.00 74 1012.8
20260504181504 18 235 3.2 8.0 0.00 0.00 0.00 75 1012.8
20260504181004 18 207 3.2 8.0 0.00 0.00 0.00 75 1012.8
20260504180504 18 224 3.2 4.8 0.00 0.00 0.00 77 1012.9
20260504180003 17 185 3.2 11.3 0.00 0.00 0.00 74 1012.8
20260504175504 17 193 6.4 9.7 0.00 0.00 0.00 75 1012.8
20260504175004 17 217 4.8 8.0 0.00 0.00 0.00 75 1012.8
20260504174003 17 201 3.2 8.0 0.00 0.00 0.00 78 1012.8
20260504173504 17 227 4.8 8.0 0.00 0.00 0.00 79 1012.8
20260504173003 17 234 3.2 4.8 0.00 0.00 0.00 79 1012.8
20260504172004 16 211 3.2 4.8 0.00 0.00 0.00 80 1012.8
20260504171503 16 260 4.8 11.3 0.00 0.00 0.00 82 1012.8
20260504171004 15 195 4.8 4.8 0.00 0.00 0.00 81 1012.8
20260504170503 15 221 3.2 4.8 0.00 0.00 0.00 84 1012.9
20260504151004 12 21 1.6 3.2 0.00 0.00 0.00 86 1012.2
20260504141004 12 36 1.6 3.2 0.00 0.00 0.00 84 1011.6
20260504140504 12 44 0.0 1.6 0.00 0.00 0.00 84 1011.6
20260504130504 13 27 4.8 4.8 0.00 0.00 0.00 78 1010.6
20260504110504 15 19 3.2 4.8 0.00 0.00 0.00 72 1009.1